{"data":{"norad_id":62917,"intl_designator":"2025-027L","name":"STARLINK-11560 [DTC]","alt_names":[],"object_type":"PAYLOAD","status":"ACTIVE","operator":null,"country":"US","launch_date":"2025-02-08","launch_site_code":"AFETR","launch_vehicle":null,"mission":null,"orbit_class":"UNKNOWN","rcs_meters":null,"size_class":null,"mass_kg":null,"dimensions":null,"purposes":["comms"],"wikipedia_slug":null,"has_3d_model":false,"image_url":null,"decayed_at":null,"tle_current":{"epoch":"2026-05-24T23:54:53.856288Z","epoch_age_seconds":75680,"freshness":"FRESH","line1":"1 62917U 25027L   26144.99645667  .00213000  00000+0  16168-2 0  9999","line2":"2 62917  43.0000 247.6694 0001262 293.4215  66.6520 15.70906105 75156","mean_motion":15.70906105,"eccentricity":0.0001262,"inclination_deg":43,"raan_deg":247.6694,"arg_perigee_deg":293.4215,"mean_anomaly_deg":66.652,"bstar":0.0016168,"rev_number":7515,"period_min":91.666840902627,"perigee_km":355.45624100975,"apogee_km":357.15601445519,"semimajor_km":6734.4431277325,"source":"CELESTRAK","updated_at":"2026-05-25T13:38:19.821278Z"}}}